TIME,DELAY(SENSOR),PRES,OXYGEN,RAWTEMP,T(OPTODE),TCPHASE,FLUOR,BETA(BETA700),BETA(BETA412),BETA(BETA440),CDOM,C(CSC),ED(ED411.90),ED(ED443.80),ED(ED489.40),ED(ED554.70),LU(LU412.20),LU(LU443.80),LU(LU489.40),LU(LU555.00),COMP,TILTX,TILTY,CHECK
1360967907,5802,864.4000244140625000,187.9884948730468800,491.7789001464844000,7.7843208312988280,38.5200881958007800,68,202,97,79,81,11884,2146958345,2147516964,2147298148,2147513691,2147088018,2146924205,2147717421,2147122221,1071,-1,9,13598
1360971503,5806,959.5200195312500000,228.9985961914062500,538.7393188476562000,6.3224029541015625,36.9149894714355500,68,202,97,78,81,11882,2146962413,2147514934,2147301723,2147522587,2147091392,2146914532,2147727314,2147120649,2296,-1,9,22540
1360975103,5806,980.1199951171875000,241.5458068847656200,546.5753173828125000,6.0768909454345700,36.4003410339355500,72,203,98,80,80,11880,2146962788,2147519433,2147298971,2147523547,2147089353,2146918025,2147730185,2147121462,587,-1,8,54818
1360978703,5807,983.3699951171875000,243.7232971191406200,547.8605957031250000,6.0365772247314450,36.3130302429199200,72,203,97,78,81,11882,2146962093,2147520576,2147299858,2147521499,2147087826,2146918747,2147727241,2147118628,276,-1,8,28234
1360982303,5807,983.5800170898438000,245.1190948486328000,548.9910278320312000,6.0011081695556640,36.2639198303222660,71,204,97,78,80,11879,2146964434,2147523401,2147299017,2147519680,2147087040,2146921828,2147731245,2147122468,171,-1,9,20447
1360985903,5805,987.6099853515625000,246.0106964111328000,550.8563842773438000,5.9425559043884280,36.2529411315918000,74,201,98,79,82,11877,2146962066,2147516352,2147301348,2147519140,2147089206,2146923584,2147731547,2147119808,285,-1,8,63874
1360989503,5808,984.2000122070312000,248.8341064453125000,552.8308105468750000,5.8805561065673830,36.1487998962402340,74,202,98,79,80,11875,2146960740,2147520548,2147301376,2147523410,2147090843,2146920722,2147726555,2147119597,11,-1,9,24770
1360993103,5807,986.9400024414062000,251.9445953369140600,556.4906005859375000,5.7655448913574220,36.0630989074707000,74,202,98,79,80,11872,2146963547,2147522258,2147302985,2147524790,2147090304,2146914560,2147733860,2147123556,3241,-1,9,50824
1360996703,5806,990.6699829101562000,253.0009002685547000,557.1589965820312000,5.7445302009582520,36.0240402221679700,74,205,97,79,81,11869,2146958125,2147515721,2147303204,2147523721,2147088676,2146918573,2147732516,2147118646,89,-1,8,35173
1361000303,5806,986.3200073242188000,252.0390930175781200,557.7459716796875000,5.7260680198669430,36.0812606811523440,74,208,97,79,80,11867,2146960566,2147518665,2147303762,2147528576,2147088768,2146918345,2147731346,2147119616,3370,-1,8,16790
1361003903,5809,993.1900024414062000,254.6999969482422000,558.4174194335938000,5.7049517631530760,35.9647293090820300,73,201,98,79,81,11867,2146967515,2147517961,2147303725,2147523803,2147087515,2146914861,2147730715,2147121334,292,-1,8,1414
1361007503,5806,995.2700195312500000,252.0572052001953000,556.1110839843750000,5.7774767875671390,36.0506896972656250,74,200,98,80,81,11866,2146962779,2147519771,2147302619,2147522413,2147089910,2146919570,2147733037,2147123318,265,-1,8,37745
1361011103,5805,993.2399902343750000,253.1463928222656200,557.4501953125000000,5.7353730201721190,36.0217590332031250,74,200,99,79,81,11869,2146964626,2147519899,2147302994,2147525696,2147089883,2146922459,2147729398,2147118491,3225,-1,9,22982
1361014703,5805,996.4099731445312000,252.6699981689453000,557.5972290039062000,5.7307491302490230,36.0481986999511700,74,201,99,80,80,11868,2146964891,2147518125,2147301330,2147523858,2147092608,2146917769,2147734985,2147121362,3498,-1,8,16571
1361018303,5806,997.1900024414062000,251.0859985351562500,554.9210205078125000,5.8148860931396480,36.0759391784668000,73,200,97,80,81,11867,2146965046,2147521636,2147300598,2147523117,2147086756,2146923026,2147732873,2147120777,383,-1,8,24971
1361021903,5804,1003.8200073242188000,251.1941070556640600,554.3292846679688000,5.8334789276123050,36.0602607727050800,74,202,97,79,81,11865,2146962194,2147515977,2147303286,2147523108,2147089536,2146916562,2147730349,2147124562,633,-1,9,17994
1361025503,5805,997.6699829101562000,252.2951965332031200,557.2747192382812000,5.7408919334411620,36.0597991943359400,73,201,98,79,81,11863,2146966116,2147521325,2147301193,2147522002,2147090587,2146916690,2147733339,2147121069,3484,-1,8,10157
1361029103,5807,1004.8699951171875000,249.5068969726562500,552.1693725585938000,5.9013290405273440,36.1032791137695300,72,201,98,78,80,11863,2146962294,2147522194,2147299200,2147526208,2147092580,2146916516,2147727515,2147122331,710,-1,8,42401
1361032703,5806,997.7199707031250000,250.1618041992187500,556.9743041992188000,5.7503380775451660,36.1588706970214840,73,391,100,79,80,11863,2146964516,2147522176,2147304292,2147523126,2147086564,2146922596,2147731913,2147120685,2942,-1,9,7698
1361036303,5805,998.4199829101562000,253.8294067382812500,558.0590209960938000,5.7162270545959470,36.0003013610839840,74,200,101,79,81,11861,2146962203,2147521389,2147301540,2147522989,2147090916,2146919597,2147729334,2147121746,3381,-1,9,32025
1361039903,5807,998.5499877929688000,254.2149047851562500,558.1917114257812000,5.7120528221130370,35.9841804504394500,75,202,98,79,81,11857,2146964032,2147518125,2147302290,2147525083,2147089974,2146915538,2147732672,2147121874,3500,-1,8,42564
1361043503,5805,1001.1099853515625000,254.1909942626953000,557.9301147460938000,5.7202801704406740,35.9799995422363300,73,202,100,78,81,11858,2146963757,2147520210,2147302811,2147522102,2147089901,2146920329,2147730358,2147120027,3562,-1,8,57248
1361047103,5806,997.0399780273438000,253.8520965576172000,558.6063842773438000,5.6990051269531250,36.0093002319335940,73,203,98,79,81,11856,2146964598,2147518665,2147302354,2147523913,2147092013,2146921837,2147729737,2147119396,3405,-1,9,11261
1361050703,5800,1001.4000244140625000,253.9429931640625000,557.6967163085938000,5.7276210784912110,35.9883003234863300,74,205,97,80,80,11857,2146961042,2147517622,2147299053,2147526336,2147091529,2146922971,2147729874,2147123483,3469,-1,9,47326
1361054303,5805,994.0999755859375000,253.3497924804687500,559.6884155273438000,5.6649670600891110,36.0532913208007800,74,204,98,80,80,11726,2146964818,2147521883,2147304338,2147525430,2147086610,2146921270,2147728923,2147121298,3238,-1,9,64596
1361057903,5808,1001.7299804687500000,254.1584014892578000,557.9121704101562000,5.7208418846130370,35.9816513061523440,75,202,99,79,82,11719,2146961673,2147519140,2147304320,2147525394,2147089398,2146916406,2147725430,2147123812,78,-1,8,17984
1361061503,5806,1002.2600097656250000,254.0294036865234400,558.9990844726562000,5.6866512298583980,36.0074195861816400,74,204,98,79,80,11712,2146963620,2147517677,2147300626,2147524068,2147089618,2146920164,2147731840,2147120621,3548,-1,9,60762
1361065103,5807,996.0399780273438000,257.9425964355469000,562.2130737304688000,5.5854969024658200,35.8791694641113300,73,203,98,79,81,11712,2146963172,2147519286,2147301760,2147525750,2147090084,2146921179,2147732544,2147119826,717,-1,9,53059
1361068703,5806,998.6799926757812000,258.7756958007812500,561.9559936523438000,5.5935921669006350,35.8344993591308600,72,203,98,77,80,11704,2146962642,2147518418,2147301769,2147525961,2147091465,2146915328,2147731648,2147122093,643,-1,8,58344
1361072303,5806,1002.5499877929688000,258.3716125488281000,561.1622924804688000,5.6185779571533200,35.8394088745117200,72,203,99,79,81,11706,2146960886,2147517677,2147302427,2147521728,2147089846,2146917805,2147734436,2147123200,179,-1,9,56988
1361075903,5807,1003.6799926757812000,256.0682067871094000,559.4564819335938000,5.6722621917724610,35.9178504943847660,73,201,97,79,81,11705,2146962633,2147517010,2147302765,2147524077,2147089691,2146922944,2147728292,2147123529,3331,-1,9,29695
1361079503,5808,1001.2999877929688000,255.4235992431640600,559.4404296875000000,5.6727700233459470,35.9483413696289060,74,203,98,79,81,11702,2146966290,2147520365,2147304109,2147525723,2147092443,2146914029,2147733604,2147118089,90,-1,8,13843
1361083103,5809,1000.5300292968750000,254.8347015380859400,560.2387084960938000,5.6476478576660160,35.9913711547851560,74,202,97,78,80,11703,2146961225,2147516141,2147303396,2147525412,2147088694,2146917824,2147731565,2147121490,81,-1,8,23479
1361086703,5806,998.6500244140625000,257.9783020019531000,561.8391113281250000,5.5972747802734375,35.8702087402343750,73,203,97,80,79,11700,2146964406,2147521334,2147303460,2147523264,2147089490,2146915574,2147731254,2147119387,373,-1,8,58902
1361090303,5805,1000.1699829101562000,256.3396911621094000,563.0584716796875000,5.5588760375976560,35.9708595275878900,73,205,99,80,80,11690,2146964352,2147520347,2147302692,2147526985,2147090550,2146917238,2147736009,2147119195,3457,-1,9,63862
1361093903,5808,1000.5100097656250000,257.6207885742187500,562.6544799804688000,5.5715961456298830,35.9023094177246100,75,589,99,79,81,11689,2146960740,2147516077,2147303606,2147527670,2147088118,2146914660,2147730971,2147120539,331,-1,8,20978
1361097503,5806,1003.1500244140625000,258.5622863769531000,562.7382812500000000,5.5689578056335450,35.8592796325683600,73,207,98,80,81,11688,2146963328,2147514404,2147303872,2147522541,2147088932,2146920374,2147731693,2147121051,227,-1,8,23990
1361101103,5806,997.9299926757812000,256.7062072753906000,563.3792114257812000,5.5487771034240720,35.9594116210937500,73,209,99,79,81,11687,2146964635,2147517202,2147302966,2147523940,2147090121,2146913435,2147732708,2147119433,3494,-1,9,29984
1361104703,5805,993.5399780273438000,261.6379089355469000,566.2067871093750000,5.4596819877624510,35.7782096862793000,73,205,97,80,81,11687,2146965558,2147517403,2147305627,2147524617,2147090980,2146915090,2147732470,2147118162,3506,-1,9,15100
1361108303,5810,998.8900146484375000,262.8317871093750000,568.1480712890625000,5.3984761238098145,35.7583084106445300,74,205,98,84,80,11683,2146963611,2147518244,2147304320,2147526363,2147088493,2146913673,2147735241,2147119780,56,-1,8,25576
1361111903,5801,997.9899902343750000,262.3790893554687500,568.3602905273438000,5.3917851448059080,35.7832489013671900,74,206,99,80,81,11651,2146962486,2147519707,2147305728,2147526299,2147086518,2146912109,2147734482,2147118829,3504,-1,8,62694
1361112355,5804,1000.5000000000000000,263.7229003906250000,568.6027832031250000,5.3841381072998050,35.7250099182128900,74,207,98,78,80,11832,2146963355,2147514130,2147306486,2147521462,2147092342,2146918290,2147731492,2147122249,2798,-1,9,35640
